Time,TemperatureF,DewpointF,PressureIn,WindDirection,WindDirectionDegrees,WindSpeedMPH,WindSpeedGustMPH,Humidity,HourlyPrecipIn,Conditions,Clouds,dailyrainin,SoftwareType,DateUTC
2013-07-10 00:00:00,80.8,52.2,29.77,ESE,123,4.0,8.1,37,0.00,,,-99.99,meteobridge,2013-07-10 06:00:00,
2013-07-10 00:05:00,80.8,52.2,29.76,SSE,153,6.9,13.0,37,0.00,,,0.00,meteobridge,2013-07-10 06:05:00,
2013-07-10 00:10:00,80.4,51.8,29.77,ENE,67,2.9,8.1,37,0.00,,,0.00,meteobridge,2013-07-10 06:10:00,
2013-07-10 00:15:00,80.4,52.5,29.77,ESE,102,4.9,10.1,38,0.00,,,0.00,meteobridge,2013-07-10 06:15:00,
2013-07-10 00:20:00,80.4,51.8,29.77,ESE,109,4.0,10.1,37,0.00,,,0.00,meteobridge,2013-07-10 06:20:00,
2013-07-10 00:25:00,80.2,51.6,29.77,East,89,2.9,6.9,37,0.00,,,0.00,meteobridge,2013-07-10 06:25:00,
2013-07-10 00:30:00,80.2,51.6,29.78,ESE,112,2.0,10.1,37,0.00,,,0.00,meteobridge,2013-07-10 06:30:00,
2013-07-10 00:35:00,80.1,51.4,29.78,East,88,2.9,8.9,37,0.00,,,0.00,meteobridge,2013-07-10 06:35:00,
2013-07-10 00:40:00,80.1,52.2,29.78,East,82,6.9,10.1,38,0.00,,,0.00,meteobridge,2013-07-10 06:40:00,
2013-07-10 00:45:00,79.9,52.0,29.78,ESE,116,2.0,6.0,38,0.00,,,0.00,meteobridge,2013-07-10 06:45:00,
2013-07-10 00:50:00,79.9,52.0,29.77,ESE,105,4.9,8.1,38,0.00,,,0.00,meteobridge,2013-07-10 06:50:00,
2013-07-10 00:55:00,79.5,51.6,29.77,ESE,109,2.9,4.9,38,0.00,,,0.00,meteobridge,2013-07-10 06:55:00,
2013-07-10 01:00:00,79.5,51.6,29.77,ESE,113,4.0,6.0,38,0.00,,,0.00,meteobridge,2013-07-10 07:00:00,
2013-07-10 01:05:00,79.3,52.2,29.77,SE,127,2.9,8.9,39,0.00,,,0.00,meteobridge,2013-07-10 07:05:00,
2013-07-10 01:10:00,79.3,52.2,29.77,East,83,6.9,6.9,39,0.00,,,0.00,meteobridge,2013-07-10 07:10:00,
2013-07-10 01:15:00,79.2,52.2,29.77,ESE,113,2.9,4.0,39,0.00,,,0.00,meteobridge,2013-07-10 07:15:00,
2013-07-10 01:20:00,78.8,52.5,29.77,SE,129,0.9,4.0,40,0.00,,,0.00,meteobridge,2013-07-10 07:20:00,
2013-07-10 01:25:00,78.6,52.3,29.77,SE,131,2.9,4.0,40,0.00,,,0.00,meteobridge,2013-07-10 07:25:00,
2013-07-10 01:30:00,78.4,52.7,29.77,SE,140,0.0,2.0,41,0.00,,,0.00,meteobridge,2013-07-10 07:30:00,
2013-07-10 01:35:00,78.1,52.5,29.77,SE,142,0.0,4.9,41,0.00,,,0.00,meteobridge,2013-07-10 07:35:00,
2013-07-10 01:40:00,78.1,52.5,29.77,SE,134,2.9,2.9,41,0.00,,,0.00,meteobridge,2013-07-10 07:40:00,
2013-07-10 01:45:00,78.1,52.5,29.77,ESE,123,0.9,6.9,41,0.00,,,0.00,meteobridge,2013-07-10 07:45:00,
2013-07-10 01:51:00,78.1,52.5,29.76,ESE,110,0.9,2.9,41,0.00,,,0.00,meteobridge,2013-07-10 07:51:00,
2013-07-10 01:56:00,78.1,52.5,29.76,ESE,113,0.9,2.9,41,0.00,,,0.00,meteobridge,2013-07-10 07:56:00,
2013-07-10 02:01:00,78.1,52.5,29.76,SSE,163,0.9,4.0,41,0.00,,,0.00,meteobridge,2013-07-10 08:01:00,
2013-07-10 02:06:00,77.7,52.2,29.76,SSE,163,0.9,2.0,41,0.00,,,0.00,meteobridge,2013-07-10 08:06:00,
2013-07-10 02:11:00,77.4,53.1,29.76,SSE,163,0.0,0.9,43,0.00,,,0.00,meteobridge,2013-07-10 08:11:00,
2013-07-10 02:16:00,76.8,53.2,29.76,SSE,163,0.0,0.9,44,0.00,,,0.00,meteobridge,2013-07-10 08:16:00,
2013-07-10 02:22:00,76.5,54.1,29.76,SSE,163,0.0,2.0,46,0.00,,,0.00,meteobridge,2013-07-10 08:22:00,
2013-07-10 02:27:00,76.3,53.4,29.76,SSE,163,0.0,0.9,45,0.00,,,0.00,meteobridge,2013-07-10 08:27:00,
2013-07-10 02:32:00,76.3,54.5,29.76,SSE,163,0.0,0.0,47,0.00,,,0.00,meteobridge,2013-07-10 08:32:00,
2013-07-10 02:37:00,75.9,53.6,29.76,SSE,163,0.0,0.9,46,0.00,,,0.00,meteobridge,2013-07-10 08:37:00,
2013-07-10 02:42:00,75.7,54.1,29.76,SSE,163,0.0,0.0,47,0.00,,,0.00,meteobridge,2013-07-10 08:42:00,
2013-07-10 02:47:00,75.7,53.4,29.76,SSE,163,0.0,0.0,46,0.00,,,0.00,meteobridge,2013-07-10 08:47:00,
2013-07-10 02:52:00,75.6,54.0,29.76,SSE,163,0.0,0.0,47,0.00,,,0.00,meteobridge,2013-07-10 08:52:00,
2013-07-10 02:57:00,75.0,54.0,29.76,SSE,163,0.0,0.0,48,0.00,,,0.00,meteobridge,2013-07-10 08:57:00,
2013-07-10 03:03:00,74.5,54.1,29.76,SSE,163,0.0,0.0,49,0.00,,,0.00,meteobridge,2013-07-10 09:03:00,
2013-07-10 03:08:00,74.1,54.9,29.76,SSE,163,0.9,0.9,51,0.00,,,0.00,meteobridge,2013-07-10 09:08:00,
2013-07-10 03:13:00,74.3,54.5,29.75,SSE,163,0.0,0.0,50,0.00,,,0.00,meteobridge,2013-07-10 09:13:00,
2013-07-10 03:18:00,74.1,54.3,29.76,SSE,163,0.9,2.0,50,0.00,,,0.00,meteobridge,2013-07-10 09:18:00,
2013-07-10 03:23:00,74.7,54.3,29.75,North,5,0.0,0.0,49,0.00,,,0.00,meteobridge,2013-07-10 09:23:00,
2013-07-10 03:28:00,74.7,54.3,29.76,North,5,0.0,0.0,49,0.00,,,0.00,meteobridge,2013-07-10 09:28:00,
2013-07-10 03:34:00,74.1,54.3,29.76,North,5,0.0,0.0,50,0.00,,,0.00,meteobridge,2013-07-10 09:34:00,
2013-07-10 03:39:00,73.8,54.5,29.76,North,5,0.0,0.0,51,0.00,,,0.00,meteobridge,2013-07-10 09:39:00,
2013-07-10 03:44:00,73.2,55.6,29.76,North,5,0.0,0.0,54,0.00,,,0.00,meteobridge,2013-07-10 09:44:00,
2013-07-10 03:50:00,72.9,55.8,29.76,North,5,0.0,0.0,55,0.00,,,0.00,meteobridge,2013-07-10 09:50:00,
2013-07-10 03:55:00,72.7,55.6,29.76,North,5,0.0,0.0,55,0.00,,,0.00,meteobridge,2013-07-10 09:55:00,
2013-07-10 04:00:00,72.5,55.9,29.75,North,5,0.0,0.9,56,0.00,,,0.00,meteobridge,2013-07-10 10:00:00,
2013-07-10 04:05:00,72.7,55.6,29.75,North,5,0.0,0.0,55,0.00,,,0.00,meteobridge,2013-07-10 10:05:00,
2013-07-10 04:10:00,72.7,55.6,29.75,North,5,0.0,0.0,55,0.00,,,0.00,meteobridge,2013-07-10 10:10:00,
2013-07-10 04:15:00,72.7,56.1,29.75,North,5,0.0,0.0,56,0.00,,,0.00,meteobridge,2013-07-10 10:15:00,
2013-07-10 04:20:00,72.3,56.3,29.76,North,5,0.0,0.0,57,0.00,,,0.00,meteobridge,2013-07-10 10:20:00,
2013-07-10 04:26:00,72.0,56.3,29.76,North,5,0.0,0.0,58,0.00,,,0.00,meteobridge,2013-07-10 10:26:00,
2013-07-10 04:31:00,71.8,57.2,29.76,North,5,0.0,0.0,60,0.00,,,0.00,meteobridge,2013-07-10 10:31:00,
2013-07-10 04:36:00,71.4,57.2,29.76,North,5,0.0,0.0,61,0.00,,,0.00,meteobridge,2013-07-10 10:36:00,
2013-07-10 04:41:00,71.2,57.6,29.76,North,5,0.0,0.0,62,0.00,,,0.00,meteobridge,2013-07-10 10:41:00,
2013-07-10 04:46:00,71.2,57.6,29.76,North,5,0.0,0.9,62,0.00,,,0.00,meteobridge,2013-07-10 10:46:00,
2013-07-10 04:51:00,71.2,57.9,29.76,NNE,16,0.0,0.9,63,0.00,,,0.00,meteobridge,2013-07-10 10:51:00,
2013-07-10 04:57:00,71.1,57.7,29.76,NNE,16,0.0,0.0,63,0.00,,,0.00,meteobridge,2013-07-10 10:57:00,
2013-07-10 05:02:00,71.1,57.7,29.76,NNE,16,0.9,0.9,63,0.00,,,0.00,meteobridge,2013-07-10 11:02:00,
2013-07-10 05:07:00,71.2,58.5,29.76,NNE,16,0.9,2.0,64,0.00,,,0.00,meteobridge,2013-07-10 11:07:00,
2013-07-10 05:12:00,71.2,58.8,29.76,NNE,16,0.0,0.0,65,0.00,,,0.00,meteobridge,2013-07-10 11:12:00,
2013-07-10 05:17:00,70.7,58.8,29.77,NNE,16,0.0,0.0,66,0.00,,,0.00,meteobridge,2013-07-10 11:17:00,
2013-07-10 05:22:00,70.3,58.5,29.77,NNE,16,0.0,0.9,66,0.00,,,0.00,meteobridge,2013-07-10 11:22:00,
2013-07-10 05:28:00,70.3,58.5,29.77,NNE,16,0.0,0.9,66,0.00,,,0.00,meteobridge,2013-07-10 11:28:00,
2013-07-10 05:33:00,70.3,58.8,29.77,NNE,16,0.0,0.0,67,0.00,,,0.00,meteobridge,2013-07-10 11:33:00,
2013-07-10 05:38:00,70.2,58.6,29.77,NNE,16,0.0,0.0,67,0.00,,,0.00,meteobridge,2013-07-10 11:38:00,
2013-07-10 05:43:00,70.2,58.6,29.77,NNE,16,0.0,0.0,67,0.00,,,0.00,meteobridge,2013-07-10 11:43:00,
2013-07-10 05:48:00,70.2,58.6,29.77,NNE,16,0.0,0.0,67,0.00,,,0.00,meteobridge,2013-07-10 11:48:00,
2013-07-10 05:54:00,69.8,58.8,29.77,NNE,16,0.0,0.0,68,0.00,,,0.00,meteobridge,2013-07-10 11:54:00,
2013-07-10 05:59:00,69.3,59.0,29.77,NNE,16,0.0,0.0,70,0.00,,,0.00,meteobridge,2013-07-10 11:59:00,
2013-07-10 06:04:00,69.1,59.4,29.77,NNE,16,0.0,0.0,71,0.00,,,0.00,meteobridge,2013-07-10 12:04:00,
2013-07-10 06:09:00,68.7,59.0,29.77,NNE,16,0.0,0.0,71,0.00,,,0.00,meteobridge,2013-07-10 12:09:00,
2013-07-10 06:14:00,68.9,59.2,29.77,NNE,16,0.9,0.9,71,0.00,,,0.00,meteobridge,2013-07-10 12:14:00,
2013-07-10 06:19:00,69.3,57.9,29.77,NNE,16,0.0,0.9,67,0.00,,,0.00,meteobridge,2013-07-10 12:19:00,
2013-07-10 06:24:00,69.3,58.3,29.78,NNE,16,0.0,0.9,68,0.00,,,0.00,meteobridge,2013-07-10 12:24:00,
2013-07-10 06:29:00,69.1,58.1,29.78,NNE,16,0.0,0.0,68,0.00,,,0.00,meteobridge,2013-07-10 12:29:00,
2013-07-10 06:34:00,69.3,58.3,29.78,NNE,16,0.0,0.0,68,0.00,,,0.00,meteobridge,2013-07-10 12:34:00,
2013-07-10 06:39:00,69.3,58.6,29.78,NNE,16,0.0,0.0,69,0.00,,,0.00,meteobridge,2013-07-10 12:39:00,
2013-07-10 06:44:00,69.1,58.1,29.78,NNE,16,0.0,0.0,68,0.00,,,0.00,meteobridge,2013-07-10 12:44:00,
2013-07-10 06:50:00,69.3,58.6,29.78,NNE,16,0.0,0.0,69,0.00,,,0.00,meteobridge,2013-07-10 12:50:00,
2013-07-10 06:55:00,69.3,58.6,29.78,NNE,16,0.0,0.0,69,0.00,,,0.00,meteobridge,2013-07-10 12:55:00,
2013-07-10 07:00:00,69.3,58.6,29.78,NNE,16,0.0,0.0,69,0.00,,,0.00,meteobridge,2013-07-10 13:00:00,
2013-07-10 07:05:00,69.4,59.2,29.79,NNE,16,0.0,0.0,70,0.00,,,0.00,meteobridge,2013-07-10 13:05:00,
2013-07-10 07:10:00,70.0,59.0,29.79,NNE,16,0.0,0.0,68,0.00,,,0.00,meteobridge,2013-07-10 13:10:00,
2013-07-10 07:13:00,70.3,58.8,29.79,NNE,16,0.0,0.0,67,0.00,,,0.00,meteobridge,2013-07-10 13:13:00,
2013-07-10 07:18:00,70.9,58.5,29.79,NNE,16,0.0,0.0,65,0.00,,,0.00,meteobridge,2013-07-10 13:18:00,
2013-07-10 07:23:00,71.2,58.5,29.79,NNE,16,0.0,0.0,64,0.00,,,0.00,meteobridge,2013-07-10 13:23:00,
2013-07-10 07:29:00,71.8,59.0,29.79,NNE,16,0.0,0.0,64,0.00,,,0.00,meteobridge,2013-07-10 13:29:00,
2013-07-10 07:34:00,71.8,58.5,29.80,NNE,16,0.0,0.0,63,0.00,,,0.00,meteobridge,2013-07-10 13:34:00,
2013-07-10 07:39:00,72.3,58.1,29.79,NNE,16,0.0,0.0,61,0.00,,,0.00,meteobridge,2013-07-10 13:39:00,
2013-07-10 07:44:00,73.0,58.8,29.79,NNE,16,0.0,0.9,61,0.00,,,0.00,meteobridge,2013-07-10 13:44:00,
2013-07-10 07:49:00,73.6,57.9,29.80,NNE,16,0.9,0.9,58,0.00,,,0.00,meteobridge,2013-07-10 13:49:00,
2013-07-10 07:55:00,74.1,57.4,29.80,NNE,15,0.0,2.0,56,0.00,,,0.00,meteobridge,2013-07-10 13:55:00,
2013-07-10 08:00:00,74.8,57.6,29.80,NNE,14,0.0,0.9,55,0.00,,,0.00,meteobridge,2013-07-10 14:00:00,
2013-07-10 08:05:00,75.2,57.9,29.80,NNE,14,0.0,0.9,55,0.00,,,0.00,meteobridge,2013-07-10 14:05:00,
2013-07-10 08:10:00,75.9,57.6,29.80,NNE,14,0.0,2.9,53,0.00,,,0.00,meteobridge,2013-07-10 14:10:00,
2013-07-10 08:15:00,76.5,57.6,29.80,NNE,14,0.0,0.0,52,0.00,,,0.00,meteobridge,2013-07-10 14:15:00,
2013-07-10 08:21:00,76.8,57.4,29.80,NNE,14,0.0,0.9,51,0.00,,,0.00,meteobridge,2013-07-10 14:21:00,
2013-07-10 08:26:00,77.4,57.2,29.80,NNE,14,0.0,0.9,50,0.00,,,0.00,meteobridge,2013-07-10 14:26:00,
2013-07-10 08:31:00,77.7,57.6,29.80,NNE,14,0.0,0.0,50,0.00,,,0.00,meteobridge,2013-07-10 14:31:00,
2013-07-10 08:36:00,78.6,56.7,29.80,NNE,14,0.0,2.0,47,0.00,,,0.00,meteobridge,2013-07-10 14:36:00,
2013-07-10 08:41:00,79.0,57.0,29.80,NNE,14,0.0,0.9,47,0.00,,,0.00,meteobridge,2013-07-10 14:41:00,
2013-07-10 08:46:00,79.3,56.8,29.80,North,11,0.9,0.9,46,0.00,,,0.00,meteobridge,2013-07-10 14:46:00,
2013-07-10 08:51:00,79.5,56.8,29.80,North,0,0.9,2.0,46,0.00,,,0.00,meteobridge,2013-07-10 14:51:00,
2013-07-10 08:56:00,79.3,56.1,29.80,NW,319,0.0,0.9,45,0.00,,,0.00,meteobridge,2013-07-10 14:56:00,
2013-07-10 09:01:00,79.9,57.2,29.80,NW,319,0.9,0.9,46,0.00,,,0.00,meteobridge,2013-07-10 15:01:00,
2013-07-10 09:06:00,79.9,56.7,29.80,NNW,346,0.9,2.9,45,0.00,,,0.00,meteobridge,2013-07-10 15:06:00,
2013-07-10 09:12:00,79.9,56.7,29.80,NW,324,0.0,2.0,45,0.00,,,0.00,meteobridge,2013-07-10 15:12:00,
2013-07-10 09:17:00,80.6,56.7,29.80,NW,324,0.0,0.9,44,0.00,,,0.00,meteobridge,2013-07-10 15:17:00,
2013-07-10 09:22:00,81.0,55.8,29.80,NW,307,0.9,2.9,42,0.00,,,0.00,meteobridge,2013-07-10 15:22:00,
2013-07-10 09:27:00,81.3,57.4,29.79,NW,317,0.0,2.0,44,0.00,,,0.00,meteobridge,2013-07-10 15:27:00,
2013-07-10 09:32:00,81.7,55.8,29.79,West,260,0.0,2.0,41,0.00,,,0.00,meteobridge,2013-07-10 15:32:00,
2013-07-10 09:37:00,82.2,55.6,29.80,West,259,0.9,2.0,40,0.00,,,0.00,meteobridge,2013-07-10 15:37:00,
2013-07-10 09:42:00,82.6,55.0,29.80,WSW,246,0.9,2.9,39,0.00,,,0.00,meteobridge,2013-07-10 15:42:00,
2013-07-10 09:47:00,82.4,55.6,29.80,SW,236,0.9,6.0,40,0.00,,,0.00,meteobridge,2013-07-10 15:47:00,
2013-07-10 09:52:00,81.9,54.5,29.80,SSW,212,2.9,4.9,39,0.00,,,0.00,meteobridge,2013-07-10 15:52:00,
2013-07-10 09:57:00,82.2,56.1,29.80,WSW,243,0.0,4.9,41,0.00,,,0.00,meteobridge,2013-07-10 15:57:00,
2013-07-10 10:02:00,82.6,54.3,29.80,WSW,238,2.0,4.0,38,0.00,,,0.00,meteobridge,2013-07-10 16:02:00,
2013-07-10 10:08:00,82.8,54.5,29.79,SSW,200,0.0,4.9,38,0.00,,,0.00,meteobridge,2013-07-10 16:08:00,
2013-07-10 10:13:00,83.7,56.1,29.79,SW,234,2.0,2.9,39,0.00,,,0.00,meteobridge,2013-07-10 16:13:00,
2013-07-10 10:18:00,83.7,55.4,29.80,SW,229,2.0,6.9,38,0.00,,,0.00,meteobridge,2013-07-10 16:18:00,
2013-07-10 10:23:00,84.0,54.9,29.79,SSW,207,2.0,4.9,37,0.00,,,0.00,meteobridge,2013-07-10 16:23:00,
2013-07-10 10:28:00,83.7,55.4,29.79,SSW,210,0.0,2.9,38,0.00,,,0.00,meteobridge,2013-07-10 16:28:00,
2013-07-10 10:33:00,84.6,55.4,29.79,SSW,202,0.9,4.9,37,0.00,,,0.00,meteobridge,2013-07-10 16:33:00,
2013-07-10 10:38:00,84.6,55.4,29.79,WSW,239,0.9,2.9,37,0.00,,,0.00,meteobridge,2013-07-10 16:38:00,
2013-07-10 10:43:00,84.9,55.0,29.79,South,172,0.0,4.0,36,0.00,,,0.00,meteobridge,2013-07-10 16:43:00,
2013-07-10 10:48:00,84.4,54.5,29.79,West,266,0.9,4.0,36,0.00,,,0.00,meteobridge,2013-07-10 16:48:00,
2013-07-10 10:53:00,84.4,55.9,29.79,WNW,295,2.0,6.9,38,0.00,,,0.00,meteobridge,2013-07-10 16:53:00,
2013-07-10 10:58:00,84.7,56.3,29.79,SW,217,0.9,4.9,38,0.00,,,0.00,meteobridge,2013-07-10 16:58:00,
2013-07-10 11:03:00,85.5,55.4,29.79,SSE,162,0.9,2.9,36,0.00,,,0.00,meteobridge,2013-07-10 17:03:00,
2013-07-10 11:08:00,85.8,55.0,29.79,SSW,211,0.9,4.0,35,0.00,,,0.00,meteobridge,2013-07-10 17:08:00,
2013-07-10 11:13:00,86.2,56.1,29.78,West,265,0.9,4.0,36,0.00,,,0.00,meteobridge,2013-07-10 17:13:00,
2013-07-10 11:18:00,86.9,55.2,29.78,NW,314,2.0,2.9,34,0.00,,,0.00,meteobridge,2013-07-10 17:18:00,
2013-07-10 11:23:00,87.6,56.7,29.78,WNW,286,0.0,2.0,35,0.00,,,0.00,meteobridge,2013-07-10 17:23:00,
2013-07-10 11:28:00,88.2,55.4,29.78,West,268,0.9,2.9,33,0.00,,,0.00,meteobridge,2013-07-10 17:28:00,
2013-07-10 11:33:00,87.3,54.7,29.78,SE,142,4.0,4.9,33,0.00,,,0.00,meteobridge,2013-07-10 17:33:00,
2013-07-10 11:38:00,86.9,55.2,29.77,SW,217,2.0,4.0,34,0.00,,,0.00,meteobridge,2013-07-10 17:38:00,
2013-07-10 11:43:00,87.6,55.0,29.77,SW,236,4.0,4.0,33,0.00,,,0.00,meteobridge,2013-07-10 17:43:00,
2013-07-10 11:48:00,87.6,55.0,29.77,SSE,147,0.9,4.0,33,0.00,,,0.00,meteobridge,2013-07-10 17:48:00,
2013-07-10 11:53:00,88.5,56.5,29.76,West,273,0.9,2.9,34,0.00,,,0.00,meteobridge,2013-07-10 17:53:00,
2013-07-10 11:58:00,88.9,54.3,29.76,West,279,0.9,2.0,31,0.00,,,0.00,meteobridge,2013-07-10 17:58:00,
2013-07-10 12:03:00,88.9,54.3,29.76,SW,230,0.9,2.9,31,0.00,,,0.00,meteobridge,2013-07-10 18:03:00,
2013-07-10 12:08:00,89.1,56.3,29.75,NE,48,0.9,2.0,33,0.00,,,0.00,meteobridge,2013-07-10 18:08:00,
2013-07-10 12:13:00,90.5,52.9,29.75,ESE,121,8.1,8.1,28,0.00,,,0.00,meteobridge,2013-07-10 18:13:00,
2013-07-10 12:18:00,91.2,51.6,29.75,SE,138,0.9,4.9,26,0.00,,,0.00,meteobridge,2013-07-10 18:18:00,
2013-07-10 12:23:00,92.1,52.3,29.75,ESE,122,6.9,6.9,26,0.00,,,0.00,meteobridge,2013-07-10 18:23:00,
2013-07-10 12:28:00,92.3,51.4,29.75,ESE,121,4.0,4.9,25,0.00,,,0.00,meteobridge,2013-07-10 18:28:00,
2013-07-10 12:33:00,92.5,52.5,29.74,SE,144,2.9,10.1,26,0.00,,,0.00,meteobridge,2013-07-10 18:33:00,
2013-07-10 12:39:00,91.9,51.1,29.74,SSE,153,6.0,6.9,25,0.00,,,0.00,meteobridge,2013-07-10 18:39:00,
2013-07-10 12:44:00,91.8,50.9,29.74,SE,132,4.9,6.0,25,0.00,,,0.00,meteobridge,2013-07-10 18:44:00,
2013-07-10 12:49:00,92.8,50.7,29.74,SSE,155,4.0,10.1,24,0.00,,,0.00,meteobridge,2013-07-10 18:49:00,
2013-07-10 12:54:00,92.7,50.5,29.74,South,184,4.9,8.9,24,0.00,,,0.00,meteobridge,2013-07-10 18:54:00,
2013-07-10 12:59:00,91.9,50.0,29.74,SW,217,2.9,4.9,24,0.00,,,0.00,meteobridge,2013-07-10 18:59:00,
2013-07-10 13:04:00,92.7,51.6,29.73,South,190,2.9,6.0,25,0.00,,,0.00,meteobridge,2013-07-10 19:04:00,
2013-07-10 13:09:00,92.3,52.5,29.73,SSE,165,6.9,11.0,26,0.00,,,0.00,meteobridge,2013-07-10 19:09:00,
2013-07-10 13:14:00,92.3,55.4,29.73,SW,224,4.0,8.9,29,0.00,,,0.00,meteobridge,2013-07-10 19:14:00,
2013-07-10 13:19:00,92.1,51.3,29.73,South,184,2.9,6.9,25,0.00,,,0.00,meteobridge,2013-07-10 19:19:00,
2013-07-10 13:24:00,92.7,50.5,29.72,East,85,0.9,6.0,24,0.00,,,0.00,meteobridge,2013-07-10 19:24:00,
2013-07-10 13:29:00,93.9,50.5,29.72,South,178,6.0,6.0,23,0.00,,,0.00,meteobridge,2013-07-10 19:29:00,
2013-07-10 13:34:00,93.9,51.6,29.72,SE,139,6.9,12.1,24,0.00,,,0.00,meteobridge,2013-07-10 19:34:00,
2013-07-10 13:39:00,93.7,51.4,29.72,SE,141,4.9,8.1,24,0.00,,,0.00,meteobridge,2013-07-10 19:39:00,
2013-07-10 13:44:00,93.7,51.4,29.72,SE,135,2.9,6.0,24,0.00,,,0.00,meteobridge,2013-07-10 19:44:00,
2013-07-10 13:49:00,92.8,50.7,29.72,ENE,72,2.0,8.9,24,0.00,,,0.00,meteobridge,2013-07-10 19:49:00,
2013-07-10 13:54:00,92.3,50.4,29.72,SE,136,2.0,6.0,24,0.00,,,0.00,meteobridge,2013-07-10 19:54:00,
2013-07-10 13:59:00,92.7,51.6,29.71,SSE,167,4.0,4.9,25,0.00,,,0.00,meteobridge,2013-07-10 19:59:00,
2013-07-10 14:04:00,92.8,49.6,29.71,East,80,2.0,8.1,23,0.00,,,0.00,meteobridge,2013-07-10 20:04:00,
2013-07-10 14:09:00,94.5,48.6,29.71,SE,140,2.9,8.9,21,0.00,,,0.00,meteobridge,2013-07-10 20:09:00,
2013-07-10 14:14:00,94.1,49.5,29.71,East,91,2.0,6.0,22,0.00,,,0.00,meteobridge,2013-07-10 20:14:00,
2013-07-10 14:19:00,94.3,49.6,29.70,SSE,159,4.9,10.1,22,0.00,,,0.00,meteobridge,2013-07-10 20:19:00,
2013-07-10 14:24:00,93.6,48.9,29.70,SSE,164,0.0,6.9,22,0.00,,,0.00,meteobridge,2013-07-10 20:24:00,
2013-07-10 14:29:00,94.5,50.9,29.70,SE,141,8.1,11.0,23,0.00,,,0.00,meteobridge,2013-07-10 20:29:00,
2013-07-10 14:34:00,94.5,49.8,29.70,SW,227,6.0,8.1,22,0.00,,,0.00,meteobridge,2013-07-10 20:34:00,
2013-07-10 14:39:00,93.0,48.6,29.70,SSE,167,2.0,6.0,22,0.00,,,0.00,meteobridge,2013-07-10 20:39:00,
2013-07-10 14:44:00,93.9,49.3,29.69,East,98,0.0,10.1,22,0.00,,,0.00,meteobridge,2013-07-10 20:44:00,
2013-07-10 14:49:00,93.9,49.3,29.69,South,184,4.9,8.1,22,0.00,,,0.00,meteobridge,2013-07-10 20:49:00,
2013-07-10 14:55:00,94.8,48.7,29.69,SSE,167,4.9,10.1,21,0.00,,,0.00,meteobridge,2013-07-10 20:55:00,
2013-07-10 15:00:00,94.1,48.2,29.68,SSW,195,6.0,11.0,21,0.00,,,0.00,meteobridge,2013-07-10 21:00:00,
2013-07-10 15:05:00,94.8,48.7,29.68,SSE,153,4.0,4.9,21,0.00,,,0.00,meteobridge,2013-07-10 21:05:00,
2013-07-10 15:10:00,95.5,48.0,29.68,SSE,155,0.9,10.1,20,0.00,,,0.00,meteobridge,2013-07-10 21:10:00,
2013-07-10 15:15:00,95.7,48.2,29.68,SE,137,4.9,11.0,20,0.00,,,0.00,meteobridge,2013-07-10 21:15:00,
2013-07-10 15:20:00,95.4,48.0,29.67,SW,227,4.9,6.9,20,0.00,,,0.00,meteobridge,2013-07-10 21:20:00,
2013-07-10 15:25:00,95.0,48.9,29.67,SE,140,0.9,8.1,21,0.00,,,0.00,meteobridge,2013-07-10 21:25:00,
2013-07-10 15:30:00,95.5,48.0,29.67,SE,136,10.1,15.0,20,0.00,,,0.00,meteobridge,2013-07-10 21:30:00,
2013-07-10 15:35:00,94.3,48.4,29.66,South,173,4.9,8.1,21,0.00,,,0.00,meteobridge,2013-07-10 21:35:00,
2013-07-10 15:40:00,93.9,49.3,29.66,ESE,109,0.9,6.0,22,0.00,,,0.00,meteobridge,2013-07-10 21:40:00,
2013-07-10 15:45:00,94.3,48.4,29.66,West,262,2.9,2.9,21,0.00,,,0.00,meteobridge,2013-07-10 21:45:00,
2013-07-10 15:50:00,94.3,49.6,29.65,South,186,2.0,6.9,22,0.00,,,0.00,meteobridge,2013-07-10 21:50:00,
2013-07-10 15:55:00,94.5,48.6,29.65,SSW,213,4.9,6.9,21,0.00,,,0.00,meteobridge,2013-07-10 21:55:00,
2013-07-10 16:00:00,94.6,48.6,29.65,SSE,156,4.0,6.0,21,0.00,,,0.00,meteobridge,2013-07-10 22:00:00,
2013-07-10 16:05:00,94.8,48.7,29.65,SW,236,4.9,10.1,21,0.00,,,0.00,meteobridge,2013-07-10 22:05:00,
2013-07-10 16:10:00,94.8,48.7,29.64,South,169,4.9,6.9,21,0.00,,,0.00,meteobridge,2013-07-10 22:10:00,
2013-07-10 16:15:00,94.8,47.5,29.64,SE,129,4.9,8.1,20,0.00,,,0.00,meteobridge,2013-07-10 22:15:00,
2013-07-10 16:20:00,94.6,47.3,29.64,SSW,210,2.0,4.0,20,0.00,,,0.00,meteobridge,2013-07-10 22:20:00,
2013-07-10 16:25:00,94.6,48.6,29.64,WSW,242,0.0,2.9,21,0.00,,,0.00,meteobridge,2013-07-10 22:25:00,
2013-07-10 16:30:00,95.0,48.9,29.63,South,178,4.0,6.9,21,0.00,,,0.00,meteobridge,2013-07-10 22:30:00,
2013-07-10 16:35:00,94.6,48.6,29.62,NW,313,2.9,2.9,21,0.00,,,0.00,meteobridge,2013-07-10 22:35:00,
2013-07-10 16:41:00,94.8,50.0,29.62,SSW,198,0.9,4.0,22,0.00,,,0.00,meteobridge,2013-07-10 22:41:00,
2013-07-10 16:46:00,95.5,51.8,29.62,South,180,6.0,6.0,23,0.00,,,0.00,meteobridge,2013-07-10 22:46:00,
2013-07-10 16:51:00,95.4,51.6,29.62,SW,234,4.0,6.0,23,0.00,,,0.00,meteobridge,2013-07-10 22:51:00,
2013-07-10 16:56:00,95.5,48.0,29.62,South,172,4.0,4.9,20,0.00,,,0.00,meteobridge,2013-07-10 22:56:00,
2013-07-10 17:01:00,95.7,49.5,29.62,SSE,155,0.0,4.0,21,0.00,,,0.00,meteobridge,2013-07-10 23:01:00,
2013-07-10 17:06:00,94.8,50.0,29.62,South,175,6.9,8.9,22,0.00,,,0.00,meteobridge,2013-07-10 23:06:00,
2013-07-10 17:11:00,94.6,53.4,29.62,SW,223,6.0,6.0,25,0.00,,,0.00,meteobridge,2013-07-10 23:11:00,
2013-07-10 17:16:00,94.5,50.9,29.62,SW,224,4.0,6.9,23,0.00,,,0.00,meteobridge,2013-07-10 23:16:00,
2013-07-10 17:21:00,94.6,49.8,29.62,SW,229,4.9,6.9,22,0.00,,,0.00,meteobridge,2013-07-10 23:21:00,
2013-07-10 17:26:00,93.4,52.3,29.61,SSW,204,6.0,12.1,25,0.00,,,0.00,meteobridge,2013-07-10 23:26:00,
2013-07-10 17:31:00,92.7,52.7,29.62,SSW,197,4.9,11.0,26,0.00,,,0.00,meteobridge,2013-07-10 23:31:00,
2013-07-10 17:36:00,92.5,52.5,29.61,SSW,192,0.9,8.1,26,0.00,,,0.00,meteobridge,2013-07-10 23:36:00,
2013-07-10 17:41:00,92.7,51.6,29.61,SW,223,6.0,8.1,25,0.00,,,0.00,meteobridge,2013-07-10 23:41:00,
2013-07-10 17:46:00,91.9,52.2,29.61,South,172,6.0,8.9,26,0.00,,,0.00,meteobridge,2013-07-10 23:46:00,
2013-07-10 17:51:00,91.8,52.0,29.62,SSE,153,2.9,8.1,26,0.00,,,0.00,meteobridge,2013-07-10 23:51:00,
2013-07-10 17:56:00,91.9,51.1,29.62,South,184,4.9,4.9,25,0.00,,,0.00,meteobridge,2013-07-10 23:56:00,
2013-07-10 18:01:00,91.6,50.7,29.62,SSW,207,2.9,6.0,25,0.00,,,0.00,meteobridge,2013-07-11 00:01:00,
2013-07-10 18:06:00,91.2,51.6,29.62,SSW,211,4.0,6.9,26,0.00,,,0.00,meteobridge,2013-07-11 00:06:00,
2013-07-10 18:11:00,91.6,51.8,29.61,WSW,248,2.0,4.9,26,0.00,,,0.00,meteobridge,2013-07-11 00:11:00,
2013-07-10 18:12:00,91.6,50.7,29.61,SW,233,0.9,4.9,25,0.00,,,0.00,meteobridge,2013-07-11 00:12:00,
2013-07-10 18:17:00,91.8,50.9,29.61,WSW,258,2.0,4.9,25,0.00,,,0.00,meteobridge,2013-07-11 00:17:00,
2013-07-10 18:22:00,91.6,50.7,29.61,SW,232,2.9,6.9,25,0.00,,,0.00,meteobridge,2013-07-11 00:22:00,
2013-07-10 18:27:00,91.2,49.5,29.61,South,175,2.0,4.9,24,0.00,,,0.00,meteobridge,2013-07-11 00:27:00,
2013-07-10 18:32:00,91.2,49.5,29.61,SSE,151,4.0,6.9,24,0.00,,,0.00,meteobridge,2013-07-11 00:32:00,
2013-07-10 18:37:00,91.0,50.4,29.61,SSE,153,4.0,4.9,25,0.00,,,0.00,meteobridge,2013-07-11 00:37:00,
2013-07-10 18:42:00,91.0,50.4,29.61,South,178,0.9,4.0,25,0.00,,,0.00,meteobridge,2013-07-11 00:42:00,
2013-07-10 18:47:00,90.9,49.1,29.61,South,184,4.9,4.9,24,0.00,,,0.00,meteobridge,2013-07-11 00:47:00,
2013-07-10 18:52:00,90.9,50.2,29.61,SSE,153,0.9,2.0,25,0.00,,,0.00,meteobridge,2013-07-11 00:52:00,
2013-07-10 18:57:00,90.9,50.2,29.61,SW,221,0.9,2.0,25,0.00,,,0.00,meteobridge,2013-07-11 00:57:00,
2013-07-10 19:02:00,90.7,48.9,29.61,SSE,159,0.9,0.9,24,0.00,,,0.00,meteobridge,2013-07-11 01:02:00,
2013-07-10 19:07:00,90.5,49.8,29.61,SSE,159,0.0,2.9,25,0.00,,,0.00,meteobridge,2013-07-11 01:07:00,
2013-07-10 19:12:00,90.3,48.6,29.61,ESE,118,2.0,6.0,24,0.00,,,0.00,meteobridge,2013-07-11 01:12:00,
2013-07-10 19:18:00,90.3,48.6,29.61,SE,138,2.9,4.9,24,0.00,,,0.00,meteobridge,2013-07-11 01:18:00,
2013-07-10 19:23:00,90.1,49.6,29.61,SE,140,0.9,2.9,25,0.00,,,0.00,meteobridge,2013-07-11 01:23:00,
2013-07-10 19:28:00,90.1,49.6,29.62,SSE,154,0.9,2.9,25,0.00,,,0.00,meteobridge,2013-07-11 01:28:00,
2013-07-10 19:33:00,90.0,48.4,29.62,SE,146,0.9,2.0,24,0.00,,,0.00,meteobridge,2013-07-11 01:33:00,
2013-07-10 19:38:00,89.8,48.2,29.62,SSE,166,2.0,2.9,24,0.00,,,0.00,meteobridge,2013-07-11 01:38:00,
2013-07-10 19:43:00,89.8,48.2,29.62,SSE,165,0.0,2.9,24,0.00,,,0.00,meteobridge,2013-07-11 01:43:00,
2013-07-10 19:48:00,89.4,48.9,29.62,SSE,154,0.9,4.0,25,0.00,,,0.00,meteobridge,2013-07-11 01:48:00,
2013-07-10 19:53:00,89.2,48.7,29.61,SE,144,2.9,4.0,25,0.00,,,0.00,meteobridge,2013-07-11 01:53:00,
2013-07-10 19:58:00,89.1,48.7,29.62,SSE,159,4.9,4.9,25,0.00,,,0.00,meteobridge,2013-07-11 01:58:00,
2013-07-10 20:03:00,88.9,48.6,29.62,South,173,0.0,4.0,25,0.00,,,0.00,meteobridge,2013-07-11 02:03:00,
2013-07-10 20:08:00,88.7,49.5,29.62,SSE,150,2.9,2.9,26,0.00,,,0.00,meteobridge,2013-07-11 02:08:00,
2013-07-10 20:13:00,88.0,52.7,29.63,SSE,165,6.9,8.9,30,0.00,,,0.00,meteobridge,2013-07-11 02:13:00,
2013-07-10 20:18:00,86.7,53.4,29.64,SE,143,6.0,8.9,32,0.00,,,0.00,meteobridge,2013-07-11 02:18:00,
2013-07-10 20:23:00,86.2,52.9,29.64,South,170,6.9,6.9,32,0.00,,,0.00,meteobridge,2013-07-11 02:23:00,
2013-07-10 20:28:00,85.6,52.3,29.65,WNW,299,0.9,4.9,32,0.00,,,0.00,meteobridge,2013-07-11 02:28:00,
2013-07-10 20:33:00,85.3,51.3,29.65,North,355,4.9,4.9,31,0.00,,,0.00,meteobridge,2013-07-11 02:33:00,
2013-07-10 20:38:00,84.4,52.2,29.65,NNW,342,6.0,14.1,33,0.00,,,0.00,meteobridge,2013-07-11 02:38:00,
2013-07-10 20:43:00,83.5,52.2,29.65,West,268,4.9,11.0,34,0.00,,,0.00,meteobridge,2013-07-11 02:43:00,
2013-07-10 20:48:00,82.9,53.2,29.65,North,5,2.0,4.9,36,0.00,,,0.00,meteobridge,2013-07-11 02:48:00,
2013-07-10 20:53:00,82.6,52.9,29.65,NNE,24,6.0,10.1,36,0.00,,,0.00,meteobridge,2013-07-11 02:53:00,
2013-07-10 20:58:00,82.4,53.6,29.66,NNW,338,2.0,2.9,37,0.00,,,0.00,meteobridge,2013-07-11 02:58:00,
2013-07-10 21:03:00,82.4,52.7,29.66,NNE,12,0.9,4.9,36,0.00,,,0.00,meteobridge,2013-07-11 03:03:00,
2013-07-10 21:08:00,82.2,53.4,29.66,NNW,338,0.0,6.0,37,0.00,,,0.00,meteobridge,2013-07-11 03:08:00,
2013-07-10 21:13:00,82.0,53.2,29.67,NNW,341,2.0,8.1,37,0.00,,,0.00,meteobridge,2013-07-11 03:13:00,
2013-07-10 21:18:00,81.7,54.3,29.67,NW,315,2.9,10.1,39,0.00,,,0.00,meteobridge,2013-07-11 03:18:00,
2013-07-10 21:23:00,81.1,53.8,29.67,North,350,2.0,6.0,39,0.00,,,0.00,meteobridge,2013-07-11 03:23:00,
2013-07-10 21:28:00,81.1,53.8,29.67,NNW,342,0.9,2.9,39,0.00,,,0.00,meteobridge,2013-07-11 03:28:00,
2013-07-10 21:33:00,81.1,53.8,29.67,WNW,303,2.0,4.0,39,0.00,,,0.00,meteobridge,2013-07-11 03:33:00,
2013-07-10 21:38:00,80.8,54.9,29.68,NW,323,0.0,4.9,41,0.00,,,0.00,meteobridge,2013-07-11 03:38:00,
2013-07-10 21:43:00,80.4,55.2,29.68,NW,311,4.0,8.1,42,0.00,,,0.00,meteobridge,2013-07-11 03:43:00,
2013-07-10 21:48:00,79.7,55.2,29.68,NNW,343,2.9,10.1,43,0.00,,,0.00,meteobridge,2013-07-11 03:48:00,
2013-07-10 21:54:00,79.2,55.4,29.69,North,351,4.9,12.1,44,0.00,,,0.00,meteobridge,2013-07-11 03:54:00,
2013-07-10 21:59:00,78.8,54.5,29.69,NNW,334,8.1,12.1,43,0.00,,,0.00,meteobridge,2013-07-11 03:59:00,
2013-07-10 22:01:00,78.8,54.5,29.69,North,0,4.9,13.0,43,0.00,,,0.00,meteobridge,2013-07-11 04:01:00,
2013-07-10 22:02:00,78.8,54.5,29.70,NW,325,4.0,8.1,43,0.00,,,0.00,meteobridge,2013-07-11 04:02:00,
2013-07-10 22:07:00,79.0,54.0,29.70,North,5,6.9,11.0,42,0.00,,,0.00,meteobridge,2013-07-11 04:07:00,
2013-07-10 22:12:00,79.2,54.7,29.70,NNE,30,2.9,6.0,43,0.00,,,0.00,meteobridge,2013-07-11 04:12:00,
2013-07-10 22:17:00,78.6,54.3,29.70,NNW,342,8.9,11.0,43,0.00,,,0.00,meteobridge,2013-07-11 04:17:00,
2013-07-10 22:22:00,78.6,54.3,29.71,NNW,335,4.0,10.1,43,0.00,,,0.00,meteobridge,2013-07-11 04:22:00,
2013-07-10 22:27:00,78.4,54.1,29.71,NNW,333,6.0,8.9,43,0.00,,,0.00,meteobridge,2013-07-11 04:27:00,
2013-07-10 22:32:00,78.3,54.0,29.71,North,355,8.1,12.1,43,0.00,,,0.00,meteobridge,2013-07-11 04:32:00,
2013-07-10 22:37:00,78.3,54.0,29.71,North,355,2.9,8.1,43,0.00,,,0.00,meteobridge,2013-07-11 04:37:00,
2013-07-10 22:42:00,78.3,53.2,29.71,NNW,336,2.0,11.0,42,0.00,,,0.00,meteobridge,2013-07-11 04:42:00,
2013-07-10 22:47:00,78.4,52.7,29.71,NW,314,2.9,15.0,41,0.00,,,0.00,meteobridge,2013-07-11 04:47:00,
2013-07-10 22:52:00,78.4,52.7,29.71,NNW,342,4.9,11.0,41,0.00,,,0.00,meteobridge,2013-07-11 04:52:00,
2013-07-10 22:57:00,78.8,53.1,29.71,NNW,348,6.0,10.1,41,0.00,,,0.00,meteobridge,2013-07-11 04:57:00,
2013-07-10 23:02:00,78.8,53.1,29.71,North,355,14.1,14.1,41,0.00,,,0.00,meteobridge,2013-07-11 05:02:00,
2013-07-10 23:07:00,78.6,53.6,29.71,NNW,336,8.1,14.1,42,0.00,,,0.00,meteobridge,2013-07-11 05:07:00,
2013-07-10 23:12:00,78.4,54.1,29.71,NW,320,10.1,15.0,43,0.00,,,0.00,meteobridge,2013-07-11 05:12:00,
2013-07-10 23:17:00,78.3,54.0,29.70,NE,35,8.1,12.1,43,0.00,,,0.00,meteobridge,2013-07-11 05:17:00,
2013-07-10 23:22:00,78.3,54.0,29.71,NNE,13,4.9,10.1,43,0.00,,,0.00,meteobridge,2013-07-11 05:22:00,
2013-07-10 23:27:00,78.1,53.8,29.71,NW,322,4.0,12.1,43,0.00,,,0.00,meteobridge,2013-07-11 05:27:00,
2013-07-10 23:32:00,78.1,53.8,29.71,North,355,8.9,11.0,43,0.00,,,0.00,meteobridge,2013-07-11 05:32:00,
2013-07-10 23:37:00,78.3,53.2,29.71,North,355,4.0,14.1,42,0.00,,,0.00,meteobridge,2013-07-11 05:37:00,
2013-07-10 23:42:00,78.4,53.4,29.71,North,355,4.0,8.1,42,0.00,,,0.00,meteobridge,2013-07-11 05:42:00,
2013-07-10 23:47:00,78.4,53.4,29.71,North,355,6.0,10.1,42,0.00,,,0.00,meteobridge,2013-07-11 05:47:00,
2013-07-10 23:52:00,78.4,53.4,29.71,NE,36,2.0,4.9,42,0.00,,,0.00,meteobridge,2013-07-11 05:52:00,
2013-07-10 23:57:00,78.3,53.2,29.72,NNE,18,0.0,2.0,42,0.00,,,0.00,meteobridge,2013-07-11 05:57:00,